Location: Aranbee
(34.0885°N, 118.2342°W)
Time: 14:02:21
(UTC+00:00)

Tiros 1 - Pass Details

Date: 28 November 2020
Orbit: 630 x 663 km, 48.4° (Epoch: 21 January)

Event Time Altitude Azimuth Distance (km) Brightness Sun altitude
Rises 00:06:19 0° 260° (W) 2,986 12.1 6.0°
Reaches altitude 10° 00:08:53 10° 271° (W) 2,075 10.9 5.6°
Maximum altitude 00:13:09 31° 333° (NNW) 1,155 8.5 4.8°
Drops below altitude 10° 00:17:24 10° 36° (NE) 2,070 9.2 4.1°
Sets 00:19:59 0° 47° (NE) 2,979 9.9 3.6°
